Valdosta Regional, GA

4:53 AM EDT on July 26, 2017 (GMT -0400)
Valdosta Regional

Weather History for KVLD - July, 2013

Change the Weather History Date:

Wednesday, July 10, 2013

  Actual Average Record
Temperature  
Mean Temperature 84 °F 81 °F  
Max Temperature 94 °F 92 °F 99 °F (2011)
Min Temperature 74 °F 71 °F 62 °F (2006)
Cooling Degree Days 19 16  
Month to date cooling degree days 180 160  
Year to date cooling degree days 1295 1004  
Since 1 June cooling degree days 733 592  
Growing Degree Days 33 (Base 50)    
Moisture  
Dew Point 72 °F    
Average Humidity 70    
Maximum Humidity 87    
Minimum Humidity 52    
Precipitation  
Precipitation 0.45 in 0.23 in 3.50 in (2005)
Month to date precipitation 3.71 2.00  
Year to date precipitation 22.04 27.06  
Sea Level Pressure  
Sea Level Pressure 30.09 in    
Wind  
Wind Speed 3 mph (SE)    
Max Wind Speed 18 mph    
Max Gust Speed 24 mph    
Visibility 7 miles    
Events Rain , Thunderstorm    
T = Trace of Precipitation, MM = Missing Value Source: NWS Daily Summary

Daily Weather History Graph

Daily Weather History Graph

Search for Another Location

Airport or City:

Trip Planner

Search our weather history database for the weather conditions in past years. The results will help you decide how hot, cold, wet, or windy it might be!

Date:

Astronomy

Jul. 10, 2013 Rise Set
Actual Time 6:37 AM EDT 8:38 PM EDT
Civil Twilight 6:10 AM EDT 9:06 PM EDT
Nautical Twilight 5:37 AM EDT 9:39 PM EDT
Astronomical Twilight 5:01 AM EDT 10:14 PM EDT
Moon 8:45 AM EDT (7/10) 10:02 PM EDT (7/10)
Length of Visible Light 14h 55m
Length of Day
14h 00m
Waxing Crescent, 5% of the Moon is Illuminated
Jul 10
Waxing Crescent
Jul 15
First Quarter
Jul 22
Full
Jul 29
Last Quarter
Aug 6
New

Hourly Weather History & Observations

Time (EDT) Temp. Heat Index Dew Point Humidity Pressure Visibility Wind Dir Wind Speed Gust Speed Precip Events Conditions
12:53 AM 75.9 °F - 72.0 °F 87% 30.14 in 7.0 mi Calm Calm - N/A   Clear
1:53 AM 75.9 °F - 72.0 °F 87% 30.13 in 8.0 mi Calm Calm - N/A   Clear
2:53 AM 75.9 °F - 71.1 °F 85% 30.11 in 5.0 mi Calm Calm - N/A   Haze
3:40 AM 75.2 °F - 71.6 °F 89% 30.09 in 5.0 mi Calm Calm - N/A   Partly Cloudy
3:53 AM 75.0 °F - 71.1 °F 87% 30.11 in 2.5 mi Calm Calm - N/A   Partly Cloudy
4:09 AM 75.2 °F - 71.6 °F 89% 30.08 in 7.0 mi Calm Calm - N/A   Clear
4:53 AM 75.0 °F - 71.1 °F 87% 30.10 in 8.0 mi Calm Calm - N/A   Clear
5:53 AM 75.9 °F - 72.0 °F 87% 30.09 in 10.0 mi SSE 4.6 mph - N/A   Clear
6:53 AM 75.0 °F - 71.1 °F 87% 30.12 in 5.0 mi Calm Calm - N/A   Clear
7:53 AM 77.0 °F - 72.0 °F 84% 30.13 in 10.0 mi South 3.5 mph - N/A   Mostly Cloudy
8:53 AM 79.0 °F - 73.0 °F 82% 30.14 in 10.0 mi Calm Calm - N/A   Mostly Cloudy
9:53 AM 82.9 °F 88.8 °F 73.0 °F 72% 30.13 in 10.0 mi Variable 3.5 mph - N/A   Mostly Cloudy
10:53 AM 86.0 °F 93.0 °F 73.0 °F 65% 30.13 in 10.0 mi SSE 3.5 mph - N/A   Clear
11:53 AM 87.1 °F 93.6 °F 72.0 °F 61% 30.12 in 10.0 mi SSE 4.6 mph - N/A   Scattered Clouds
12:53 PM 91.9 °F 99.5 °F 72.0 °F 52% 30.09 in 10.0 mi South 4.6 mph - N/A   Scattered Clouds
1:53 PM 91.0 °F 99.3 °F 73.0 °F 55% 30.07 in 10.0 mi SSE 8.1 mph - N/A   Mostly Cloudy
2:53 PM 86.0 °F 90.4 °F 69.8 °F 58% 30.07 in 10.0 mi North 12.7 mph 20.7 mph N/A Thunderstorm Thunderstorm
3:29 PM 75.2 °F - 71.6 °F 89% 30.08 in 2.0 mi NE 11.5 mph - 0.13 in Rain , Thunderstorm Heavy Thunderstorms and Rain
3:53 PM 75.9 °F - 71.1 °F 85% 30.06 in 5.0 mi East 8.1 mph - 0.17 in Rain , Thunderstorm Light Thunderstorms and Rain
4:53 PM 75.0 °F - 71.1 °F 87% 30.11 in 4.0 mi Variable 3.5 mph - 0.03 in Rain , Thunderstorm Thunderstorms and Rain
5:05 PM 75.2 °F - 71.6 °F 89% 30.08 in 4.0 mi SSW 4.6 mph - 0.01 in Rain , Thunderstorm Light Thunderstorms and Rain
5:53 PM 75.9 °F - 72.0 °F 87% 30.06 in 4.0 mi SE 3.5 mph - 0.12 in Rain , Thunderstorm Thunderstorms and Rain
6:01 PM 75.2 °F - 71.6 °F 89% 30.03 in 4.0 mi ESE 3.5 mph - 0.03 in Rain Rain
6:53 PM 75.9 °F - 72.0 °F 87% 30.03 in 5.0 mi Calm Calm - 0.11 in Rain Light Rain
7:53 PM 75.9 °F - 71.1 °F 85% 30.03 in 10.0 mi Calm Calm - 0.02 in Rain Light Rain
8:53 PM 75.0 °F - 71.1 °F 87% 30.03 in 10.0 mi Calm Calm - 0.00 in   Mostly Cloudy
9:53 PM 75.0 °F - 71.1 °F 87% 30.04 in 10.0 mi Calm Calm - N/A   Clear
10:53 PM 75.0 °F - 71.1 °F 87% 30.04 in 9.0 mi Calm Calm - N/A   Clear
11:53 PM 75.0 °F - 71.1 °F 87% 30.04 in 10.0 mi Calm Calm - N/A   Clear